Regional Weather Roundup
Issued by NWS

Home | Current Version | Previous Version | Text Only | Print | Product List | Glossary Off
Versions: 1 2 3 4 5 6 7 8 9 10 11 12 13 14 15 16 17 18 19 20 21 22 23 24 25 26 27 28 29 30 31 32 33 34 35 36 37 38 39 40 41 42 43 44 45 46 47 48 49 50

000
ASUS43 KMPX 291310
RWRMN
WEATHER ROUNDUP FOR MINNESOTA
NATIONAL WEATHER SERVICE TWIN CITIES/CHANHASSEN MN
800 AM CDT SAT AUG 29 2015


NOTE: "FAIR" INDICATES FEW OR NO CLOUDS BELOW 12,000 FEET WITH NO
SIGNIFICANT WEATHER AND/OR OBSTRUCTIONS TO VISIBILITY. N/A MEANS
CURRENT SKY AND/OR WEATHER CONDITIONS ARE NOT AVAILABLE.

MNZ060>063-068>070-291400-
   Twin Cities Metro

CITY           SKY/WX    TMP DP  RH WIND       PRES   REMARKS
TWIN CITIES    CLOUDY    57  55  93 SE6       30.08R FOG
ST PAUL        CLOUDY    57  55  93 E3        30.08R
CRYSTAL        PTSUNNY   58  55  90 CALM      30.07R FOG
BLAINE         MOSUNNY   57  57 100 CALM      30.07R
LAKEVILLE      FOG       55  55 100 E3        30.08R VSB 3/4
EDEN PRAIRIE   CLOUDY    58  55  90 E5        30.07R
SOUTH ST PAUL  CLOUDY    57  55  94 E3        30.07R FOG
LAKE ELMO      FAIR      55  55 100 SE6       30.07F
$$
MNZ001>005-007-008-013>017-022>024-027-028-291400-
   Northwest Minnesota

CITY           SKY/WX    TMP DP  RH WIND       PRES   REMARKS
BEMIDJI        SUNNY     61  59  94 S5        29.99S
HALLOCK        FOG       66  64  94 S9        29.91R VSB<1/4
ROSEAU         CLOUDY    66  61  82 S5        29.94S HAZE
WARROAD        FOG       64  61  88 CALM      29.95S VSB<1/4
THIEF RVR FALL SUNNY    N/A N/A N/A S8        29.94R
CROOKSTON      SUNNY     63  61  94 S12       29.94S
FOSSTON        SUNNY     63  59  88 S9        29.97S
DETROIT LAKES  SUNNY     61  59  94 S8        30.01R
MOORHEAD       SUNNY     61  59  94 S10       29.98R
PARK RAPIDS    SUNNY     60  57  89 S8        30.01S
MAHNOMEN       FAIR      62  59  91 S8        29.98R
$$
MNZ006-009>011-018-025>026-291400-
   North Central Minnesota

CITY           SKY/WX    TMP DP  RH WIND       PRES   REMARKS
BAUDETTE       PTSUNNY   62  61  96 CALM      29.96R
FLAG ISLAND    FOG       63  63 100 CALM      29.94R VSB<1/4
INTL FALLS     CLOUDY    65  62  90 SW6       29.98R
WASKISH        CLOUDY    64  63  94 S5        29.97S
BIG FORK       PTSUNNY   64  61  88 S9        30.01R
LONGVILLE      PTSUNNY   61  57  88 S7        30.02S
GRAND RAPIDS     N/A     61  55  82 S8        30.03R
ORR            CLOUDY    64  57  77 S6        29.97S
COOK           CLOUDY    63  59  88 S5        30.01S
WALKER         FAIR      59  57  93 S8        30.00S
$$
MNZ012-019>021-037-291400-
   Northeast Minnesota

CITY           SKY/WX    TMP DP  RH WIND       PRES   REMARKS
DULUTH         CLOUDY    59  56  89 W9        30.04R
ELY            CLOUDY    61  57  88 W7        30.01R
HIBBING        CLOUDY    61  57  87 VRB3      30.03R
EVELETH        PTSUNNY   59  55  88 SW6       30.03S
DULUTH HARBOR  CLOUDY    61  57  88 SW10      30.03R
TWO HARBORS    CLOUDY    63  57  82 W6        30.00R
SILVER BAY     PTSUNNY   63  59  88 CALM      29.99R
GRAND MARAIS     N/A     53  52  96 MISG      29.97R
G MARAIS ARPRT SUNNY     61  54  77 W9        30.01R
$$
MNZ029>031-032-039>041-046>048-054>057-064-291400-
   West Central Minnesota

CITY           SKY/WX    TMP DP  RH WIND       PRES   REMARKS
FERGUS FALLS   SUNNY     59  59 100 S9        30.01R
WHEATON        SUNNY     57  55  94 SE7       30.03R
MORRIS         SUNNY     57  55  94 SE9       30.03R
ALEXANDRIA     CLOUDY    60  57  89 S13       30.06R
ELBOW LAKE     FAIR      58  56  93 SE9       30.02R
WADENA         SUNNY     55  55 100 S5        30.03S
GLENWOOD       CLOUDY    57  55  94 S7        30.07R FOG
APPLETON       SUNNY     57  54  88 SE6       30.04R
BENSON         SUNNY     55  54  94 S5        30.06R
ORTONVILLE     SUNNY     55  54  94 SE6       30.03R
MADISON        SUNNY     55  54  94 SE5       30.04R
WILLMAR        PTSUNNY   54  54 100 CALM      30.08R FOG
$$
MNZ033>034-036-042>043-049>051-058-059-291400-
   Central Minnesota

CITY           SKY/WX    TMP DP  RH WIND       PRES   REMARKS
ST CLOUD       PTSUNNY   56  55  97 SE5       30.07R FOG
SAUK CENTRE    FOG       54  54  99 CALM      30.07R VSB 3/4
PAYNESVILLE    MOSUNNY   53  52  98 CALM      30.07R FOG
AITKIN         CLOUDY    63  55  77 S9        30.03S
PINE RIVER     PTSUNNY   59  59 100 S5        30.07R
BRAINERD       CLOUDY    58  56  93 S8        30.05R
STAPLES        PTSUNNY   57  55  94 S7        30.04R
LONG PRAIRIE   CLOUDY    55  55 100 S6        30.06R
LITTLE FALLS   MOSUNNY   55  54  94 CALM      30.06R
LITCHFIELD     MOSUNNY   57  57 100 SE5       30.07R FOG
BUFFALO        PTSUNNY   56  54  93 CALM      30.08R FOG
MAPLE LAKE     PTSUNNY   58  58  99 CALM      30.08R FOG
$$
MNZ037-044-045-052-053-291400-
   East Central Minnesota

CITY           SKY/WX    TMP DP  RH WIND       PRES   REMARKS
PRINCETON      PTSUNNY   57  55  94 SE5       30.07R FOG
MORA           MOSUNNY   54  52  94 CALM      30.08R FOG
CAMBRIDGE      MOSUNNY   59  52  77 CALM      30.05R
RUSH CITY      MOSUNNY   55  54  97 CALM      30.07R
MOOSE LAKE     CLOUDY    57  54  88 S5        30.04R
HINCKLEY       FAIR      55  55 100 CALM      30.07R
CLOQUET        CLOUDY    59  55  88 SW6       30.05R
MCGREGOR       CLOUDY    59  55  88 S6        30.05R
$$
MNZ071>073-080-081-089-090-097-098-291400-
   Southwest Minnesota

CITY           SKY/WX    TMP DP  RH WIND       PRES   REMARKS
MONTEVIDEO     SUNNY     55  54  94 S3        30.07S FOG
GRANITE FALLS  MOSUNNY   51  51 100 CALM      30.08R FOG
CANBY          SUNNY     56  55  95 SE3       30.05S
MARSHALL       SUNNY     54  48  82 SE5       30.06S
REDWOOD FALLS  FOG       52  51  97 S3        30.06R VSB<1/4
OLIVIA         FOG       52  50  93 CALM      30.06R VSB<1/4
PIPESTONE      FOG       52  52 100 CALM      30.07S VSB<1/4
WINDOM         FOG       55  55 100 CALM      30.07R VSB<1/4
WORTHINGTON    CLOUDY    54  50  87 CALM      30.08R VSB 1/4
JACKSON        FOG       55  55 100 CALM      30.07S VSB<1/4
TRACY          SUNNY     56  55  97 SW5       30.08R
SLAYTON        MOSUNNY   52  52 100 CALM      30.09R
$$
MNZ065>067-074>077-082>085-091>093-291400-
   South Central Minnesota

CITY           SKY/WX    TMP DP  RH WIND       PRES   REMARKS
MANKATO        CLOUDY    57  54  88 CALM      30.07R VSB<1/4
NEW ULM        FOG       55  55 100 CALM      30.06R VSB<1/4
ST JAMES       FOG       57  57 100 CALM      30.07R VSB 1/4
FAIRMONT       CLOUDY    55  52  88 CALM      30.06R VSB<1/4
GLENCOE        FOG       56  56 100 CALM      30.07R VSB<1/4
FARIBAULT      CLOUDY    57  55  94 CALM      30.07R FOG
OWATONNA       CLOUDY    57  55  94 E5        30.07R FOG
WASECA         FOG       55  55 100 MISG      30.08R VSB 1/4
ALBERT LEA     FOG       59  57  94 NE3       30.06R VSB 1
$$
MNZ078>079-086>088-094>096-291400-
   Southeast Minnesota

CITY           SKY/WX    TMP DP  RH WIND       PRES   REMARKS
ROCHESTER      FOG       58  58 100 NE8       30.07R VSB 1/4
RED WING       CLOUDY    57  55  94 E5        30.07R FOG
STANTON        FOG       57  56  94 CALM      30.07R VSB 3/4
DODGE CENTER   FOG       57  55  94 NE5       30.07R VSB 1/4
WINONA         CLOUDY    61  57  88 NE3       30.06R
AUSTIN         FOG       61  59  94 NE6       30.06R VSB 1/2
PRESTON        FOG       58  57  96 NE5       30.06R VSB 1/4
$$
ABBREVIATIONS USED IN REMARKS
   TC - TEMPERATURES IN CELSIUS
  WCI - WIND CHILL INDEX
   HX - HEAT INDEX
  VSB - VISIBILITY
$$


USA.gov is the U.S. government's official web portal to all federal, state and local government web resources and services.